EW8522 Weather Reports


Display with metric or nautical units.
time (UTC)temp
F
wind
direction
speed
MPH
gust
MPH
rain 1hr
in
rain 24hr
in
rain mn
in
humidity
%
barometer
mb
20260504184532 62 346 0.0 0.0 0.00 0.00 0.00 59 1003.6
20260504181517 61 346 0.0 0.0 0.00 0.00 0.00 55 1004.0
20260504180011 61 346 0.0 0.0 0.00 0.00 0.00 69 1004.2
20260504174507 60 346 0.0 0.0 0.00 0.00 0.00 58 1004.3
20260504171501 56 346 0.0 0.0 0.00 0.00 0.00 77 1004.6
20260504081546 0 0.0 0.0 0.00 0.00 0.00 1005.3
20260504044533 0 0.0 0.0 0.00 0.00 0.00 1004.6
20260504043028 0 0.0 0.0 0.00 0.00 0.00 1004.5
20260504041529 0 0.0 0.0 0.00 0.00 0.00 1004.4
20260504040028 0 0.0 0.0 0.00 0.00 0.00 1004.3
20260504034529 0 0.0 0.0 0.00 0.00 0.00 1004.2
20260504033028 0 0.0 0.0 0.00 0.00 0.00 1003.8
20260504031527 0 0.0 0.0 0.00 0.00 0.00 1003.8
20260504030027 0 0.0 0.0 0.00 0.00 0.00 1003.7
20260504024532 71 346 0.0 0.0 0.00 0.00 0.00 26 1003.5
20260504023025 72 346 0.0 0.0 0.00 0.00 0.00 42 1003.5
20260504021526 72 346 0.0 0.0 0.00 0.00 0.00 41 1003.6
20260504020024 72 346 0.0 0.0 0.00 0.00 0.00 41 1003.6
20260504014523 73 346 0.0 0.0 0.00 0.00 0.00 39 1003.6
20260504013123 73 346 0.0 0.0 0.00 0.00 0.00 39 1003.7
20260504011521 74 346 0.0 0.0 0.00 0.00 0.00 40 1003.7
20260504010020 74 346 0.0 0.0 0.00 0.00 0.00 36 1003.7
20260504004519 75 346 0.0 0.0 0.00 0.00 0.00 36 1003.8
20260504003035 75 346 0.0 0.0 0.00 0.00 0.00 35 1003.8
20260504001519 75 346 0.0 0.0 0.00 0.00 0.00 33 1003.9
20260504000018 75 346 0.0 0.0 0.00 0.00 0.00 34 1004.0
20260503234516 75 346 0.0 0.0 0.00 0.00 0.00 37 1004.0
20260503233014 76 346 0.0 0.0 0.00 0.00 0.00 39 1004.3
20260503231515 77 346 0.0 0.0 0.00 0.00 0.00 36 1004.5
20260503230013 77 346 0.0 0.0 0.00 0.00 0.00 38 1004.6
20260503224521 77 346 0.0 0.0 0.00 0.00 0.00 33 1004.9
20260503223009 78 346 0.0 0.0 0.00 0.00 0.00 27 1005.2
20260503221509 78 346 0.0 0.0 0.00 0.00 0.00 31 1005.5
20260503220016 78 346 0.0 0.0 0.00 0.00 0.00 31 1005.6
20260503214505 79 346 0.0 0.0 0.00 0.00 0.00 31 1006.0
20260503213003 81 346 0.0 0.0 0.00 0.00 0.00 31 1006.1
20260503211605 81 346 0.0 0.0 0.00 0.00 0.00 30 1006.3
20260503210057 80 346 0.0 0.0 0.00 0.00 0.00 28 1006.6
20260503204555 78 345 0.0 0.0 0.00 0.00 0.00 42 1006.9
20260503203050 73 345 0.0 0.0 0.00 0.00 0.00 38 1007.1
20260503201547 69 345 0.0 0.0 0.00 0.00 0.00 47 1007.6
20260503200042 65 345 0.0 0.0 0.00 0.00 0.00 61 1007.8
20260503194538 64 345 0.0 0.0 0.00 0.00 0.00 53 1008.1
20260503193033 63 345 0.0 0.0 0.00 0.00 0.00 56 1008.4
20260503191531 61 345 0.0 0.0 0.00 0.00 0.00 51 1008.7
20260503190028 61 345 0.0 0.0 0.00 0.00 0.00 61 1008.9